Location: Hochstatterhof
(48.7256°N, 10.3487°E)
Time: 02:22:17
(UTC+00:00)

Cosmos-2242 - Pass Details

Date: 26 September 2023
Orbit: 583 x 608 km, 82.5° (Epoch: 04 December)

Event Time Altitude Azimuth Distance (km) Brightness Sun altitude
Exits shadow 02:40:08 30° 338° (NNW) 1,055 4.2 -24.6°
Drops below altitude 10° 02:42:35 10° 359° (N) 1,916 5.9 -24.2°
Sets 02:44:52 0° 5° (N) 2,821 6.9 -23.9°
